{"data":{"norad_id":59191,"epoch":"2026-05-24T22:02:43.038816Z","epoch_age_seconds":75239,"freshness":"FRESH","line1":"1 59191U 24045P   26144.91855369 -.00000808  00000+0 -19832-4 0  9997","line2":"2 59191  43.0026  18.2604 0001322 247.9375 112.1336 15.27589993124864","mean_motion":15.27589993,"eccentricity":0.0001322,"inclination_deg":43.0026,"raan_deg":18.2604,"arg_perigee_deg":247.9375,"mean_anomaly_deg":112.1336,"bstar":-1.9832e-5,"rev_number":12486,"period_min":94.26613205105,"perigee_km":482.11212871967,"apogee_km":483.92621841196,"semimajor_km":6861.1561735658,"source":"CELESTRAK","updated_at":"2026-05-25T13:38:18.861552Z"}}